Location: Dal�� Lhota
(48.7500°N, 14.0167°E)
Time: 07:22:35
(UTC+00:00)

Courier 1B Rocket - Pass Details

Date: 03 August 2021
Orbit: 920 x 1202 km, 28.3° (Epoch: 27 September)

Event Time Altitude Azimuth Distance (km) Brightness Sun altitude
Rises 01:08:33 0° 225° (SW) 3,780 - -18.7°
Reaches altitude 10° 01:13:41 10° 193° (SSW) 2,751 - -18.3°
Maximum altitude 01:15:31 11° 177° (S) 2,637 - -18.1°
Drops below altitude 10° 01:17:20 10° 160° (SSE) 2,702 - -18.0°
Exits shadow 01:17:34 10° 158° (SSE) 2,723 7.0 -18.0°
Sets 01:22:12 0° 128° (SE) 3,594 7.9 -17.6°
